Погода в Урусове

Россия / Липецкая область     53°30′55″N   39°35′54″E
темп.,
°C
ветер,
м/с
пор.,
м/с
влажн.,
%
обл.,
%
осадки,
мм/ч
давл.,
гПа
погр.,
м
20 июня, вс
вс2000:00+17ююз22860 0.0 102419
03:00+16ю12870 0.0 102511
06:00+18ююв22820 0.0 102475
09:00+22юв23680 0.0 1024444
12:00+25юв33570 0.0 1024909
15:00+26юв34565 0.0 10231066
18:00+25в3468100 0.0 1021255
21:00+20вюв2278100 0.0 102214
21 июня, пн
пн2100:00+19вюв2282100 0.0 102212
03:00+18вюв2285100 0.0 102214
06:00+19вюв2485100 0.0 1022110
09:00+23вюв4571100 0.0 1022383
12:00+26вюв4559100 0.0 1021792
15:00+27юв455799 0.0 10211041
18:00+25вюв3674100 0.0 1020252
21:00+21юв338118 0.0 102132
22 июня, вт
вт2200:00+19юв338742 0.0 102134
03:00+18юв22896 0.0 102222
06:00+20вюв24841 0.0 1022102
09:00+24юв34675 0.0 1022368
12:00+28вюв34570 0.0 1022825
15:00+29вюв33510 0.0 10211088
18:00+28в24648 0.0 1021297
21:00+22вюв227377 0.0 102111
23 июня, ср
ср2300:00+20в227432 0.0 102213
03:00+19всв22782 0.0 102213
06:00+20всв248255 0.0 102294
09:00+25вюв34667 0.0 1022395
12:00+29в34545 0.0 1022961
15:00+30в33470 0.0 10221242
18:00+29всв23630 0.0 1021213
21:00+23всв22765 0.0 102213
24 июня, чт
чт2400:00+21в22765 0.0 102211
03:00+20всв22785 0.0 102214
06:00+22всв22815 0.0 102265
09:00+26вюв23685 0.0 1022368
12:00+29юв33575 0.0 10211032
15:00+30юв21495 0.0 10211669
18:00+30вюв115776 0.0 10201436
21:00+24юв22667 0.0 101911